EN

Hourly Weather Amol

Today, 17 January, Sunday

Time Temperature Precipitation Wind Pressure Humidity
00:00 +12°C° 0 mm 1 mps 747 mmHg 54%
01:00 +12°C° 0 mm 1 mps 746 mmHg 54%
02:00 +12°C° 0 mm 1 mps 746 mmHg 53%
03:00 +11°C° 0 mm 1 mps 745 mmHg 54%
04:00 +11°C° 0 mm 1 mps 745 mmHg 54%
05:00 +11°C° 0 mm 1 mps 745 mmHg 54%
06:00 +11°C° 0 mm 1 mps 744 mmHg 54%
07:00 +12°C° 0 mm 1 mps 744 mmHg 52%
08:00 +14°C° 0 mm 1 mps 744 mmHg 51%
09:00 +15°C° 0 mm 1 mps 744 mmHg 49%
10:00 +15°C° 0 mm 1 mps 743 mmHg 50%
11:00 +16°C° 0 mm 1 mps 743 mmHg 51%
12:00 +16°C° 0 mm 2 mps 743 mmHg 53%
13:00 +16°C° 0 mm 1 mps 742 mmHg 54%
14:00 +16°C° 0 mm 1 mps 742 mmHg 56%
15:00 +16°C° 0 mm 1 mps 742 mmHg 58%
16:00 +15°C° 0 mm 1 mps 742 mmHg 60%
17:00 +14°C° 0 mm 2 mps 742 mmHg 61%
18:00 +13°C° 0 mm 2 mps 743 mmHg 63%
19:00 +13°C° 0 mm 2 mps 743 mmHg 61%
20:00 +13°C° 0 mm 2 mps 742 mmHg 59%
21:00 +12°C° 0 mm 2 mps 742 mmHg 57%
22:00 +12°C° 0 mm 2 mps 742 mmHg 54%
23:00 +12°C° 0 mm 2 mps 742 mmHg 52%

Tomorrow, 18 January, Monday

Time Temperature Precipitation Wind Pressure Humidity
00:00 +12°C° 0 mm 2 mps 742 mmHg 49%
01:00 +12°C° 0 mm 2 mps 742 mmHg 46%
02:00 +12°C° 0 mm 2 mps 742 mmHg 42%
03:00 +12°C° 0 mm 2 mps 742 mmHg 39%
04:00 +12°C° 0 mm 2 mps 743 mmHg 36%
05:00 +12°C° 0 mm 2 mps 743 mmHg 34%
06:00 +12°C° 0 mm 2 mps 743 mmHg 32%
07:00 +13°C° 0 mm 2 mps 743 mmHg 30%
08:00 +15°C° 0 mm 1 mps 743 mmHg 28%
09:00 +18°C° 0 mm 1 mps 743 mmHg 26%
10:00 +19°C° 0 mm 1 mps 743 mmHg 25%
11:00 +21°C° 0 mm 1 mps 743 mmHg 23%
12:00 +22°C° 0 mm 1 mps 743 mmHg 22%
13:00 +22°C° 0 mm 1 mps 743 mmHg 23%
14:00 +21°C° 0 mm 2 mps 743 mmHg 25%
15:00 +21°C° 0 mm 2 mps 743 mmHg 27%
16:00 +19°C° 0 mm 2 mps 743 mmHg 31%
17:00 +17°C° 0 mm 2 mps 744 mmHg 34%
18:00 +16°C° 0 mm 2 mps 744 mmHg 38%
19:00 +15°C° 0 mm 2 mps 745 mmHg 37%
20:00 +15°C° 0 mm 2 mps 745 mmHg 36%
21:00 +15°C° 0 mm 2 mps 745 mmHg 35%
22:00 +14°C° 0 mm 2 mps 746 mmHg 34%
23:00 +14°C° 0 mm 2 mps 746 mmHg 34%

Day after tomorrow, 19 January, Tuesday

Time Temperature Precipitation Wind Pressure Humidity
00:00 +14°C° 0 mm 2 mps 747 mmHg 33%
01:00 +13°C° 0 mm 2 mps 747 mmHg 44%
02:00 +11°C° 0 mm 3 mps 747 mmHg 55%
03:00 +11°C° 0 mm 3 mps 747 mmHg 66%
04:00 +10°C° 0 mm 2 mps 748 mmHg 67%
05:00 +11°C° 0 mm 1 mps 748 mmHg 67%
06:00 +10°C° 0 mm 1 mps 749 mmHg 67%
07:00 +12°C° 0 mm 1 mps 749 mmHg 63%
08:00 +13°C° 0 mm 1 mps 749 mmHg 59%
09:00 +14°C° 0 mm 1 mps 749 mmHg 55%
10:00 +15°C° 0 mm 2 mps 748 mmHg 55%
11:00 +16°C° 0 mm 2 mps 748 mmHg 54%
12:00 +17°C° 0 mm 3 mps 748 mmHg 54%
13:00 +16°C° 0 mm 3 mps 747 mmHg 57%
14:00 +16°C° 0 mm 3 mps 747 mmHg 60%
15:00 +14°C° 0 mm 3 mps 746 mmHg 63%
16:00 +14°C° 0 mm 2 mps 747 mmHg 67%
17:00 +13°C° 0 mm 2 mps 747 mmHg 71%
18:00 +10°C° 0 mm 2 mps 747 mmHg 75%
19:00 +10°C° 0 mm 2 mps 747 mmHg 74%
20:00 +11°C° 0 mm 1 mps 747 mmHg 74%
21:00 +10°C° 0 mm 1 mps 748 mmHg 74%
22:00 +10°C° 0 mm 1 mps 747 mmHg 75%
23:00 +10°C° 0 mm 1 mps 747 mmHg 76%

20 January, Wednesday

Time Temperature Precipitation Wind Pressure Humidity
00:00 +10°C° 0 mm 1 mps 747 mmHg 77%
01:00 +9°C° 0 mm 1 mps 747 mmHg 77%
02:00 +9°C° 0 mm 1 mps 747 mmHg 77%
03:00 +9°C° 0 mm 1 mps 747 mmHg 78%
04:00 +9°C° 0 mm 1 mps 747 mmHg 78%
05:00 +9°C° 0 mm 1 mps 747 mmHg 77%
06:00 +9°C° 0 mm 1 mps 747 mmHg 77%
07:00 +9°C° 0 mm 1 mps 748 mmHg 77%
08:00 +9°C° 0 mm 2 mps 748 mmHg 76%
09:00 +10°C° 0 mm 2 mps 748 mmHg 76%
10:00 +10°C° 0 mm 2 mps 748 mmHg 77%
11:00 +10°C° 0 mm 2 mps 747 mmHg 77%
12:00 +10°C° 0 mm 2 mps 747 mmHg 78%
13:00 +10°C° 0 mm 2 mps 747 mmHg 78%
14:00 +10°C° 0 mm 2 mps 746 mmHg 77%
15:00 +10°C° 0 mm 2 mps 746 mmHg 76%
16:00 +10°C° 0 mm 1 mps 746 mmHg 79%
17:00 +10°C° 0 mm 1 mps 746 mmHg 82%
18:00 +9°C° 0 mm 1 mps 746 mmHg 85%
19:00 +7°C° 0.4 mm 4 mps 746 mmHg 87%
20:00 +5°C° 0.4 mm 7 mps 746 mmHg 89%
21:00 +3°C° 0.4 mm 10 mps 747 mmHg 91%
22:00 +3°C° 1.3 mm 9 mps 747 mmHg 87%
23:00 +3°C° 1.3 mm 9 mps 747 mmHg 84%

21 January, Thursday

Time Temperature Precipitation Wind Pressure Humidity
00:00 +2°C° 1.3 mm 9 mps 748 mmHg 81%
01:00 +2°C° 2.2 mm 8 mps 749 mmHg 83%
02:00 +3°C° 2.2 mm 7 mps 749 mmHg 85%
03:00 +2°C° 2.2 mm 6 mps 750 mmHg 87%
04:00 +2°C° 1.7 mm 6 mps 751 mmHg 90%
05:00 +2°C° 1.7 mm 6 mps 752 mmHg 92%
06:00 +1°C° 1.7 mm 5 mps 753 mmHg 95%
07:00 +1°C° 2.2 mm 6 mps 754 mmHg 95%
08:00 +1°C° 2.2 mm 6 mps 755 mmHg 95%
09:00 +2°C° 2.2 mm 6 mps 756 mmHg 95%
10:00 +2°C° 1.6 mm 5 mps 756 mmHg 94%
11:00 +2°C° 1.6 mm 5 mps 757 mmHg 94%
12:00 +1°C° 1.6 mm 4 mps 757 mmHg 94%
13:00 +1°C° 1.2 mm 4 mps 758 mmHg 94%
14:00 +2°C° 1.2 mm 3 mps 758 mmHg 95%
15:00 +2°C° 1.2 mm 3 mps 759 mmHg 95%
16:00 +3°C° 1.1 mm 2 mps 759 mmHg 95%
17:00 +2°C° 1.1 mm 2 mps 760 mmHg 96%
18:00 +2°C° 1.1 mm 2 mps 761 mmHg 96%
19:00 +2°C° 0.1 mm 2 mps 761 mmHg 92%
20:00 +1°C° 0.1 mm 2 mps 762 mmHg 87%
21:00 +2°C° 0.1 mm 1 mps 762 mmHg 83%
22:00 +1°C° 0 mm 2 mps 762 mmHg 79%
23:00 -1°C° 0 mm 2 mps 762 mmHg 74%

22 January, Friday

Time Temperature Precipitation Wind Pressure Humidity
00:00 -1°C° 0 mm 2 mps 762 mmHg 70%
01:00 -1°C° 0 mm 2 mps 762 mmHg 67%
02:00 -1°C° 0 mm 2 mps 762 mmHg 65%
03:00 -1°C° 0 mm 2 mps 762 mmHg 62%
04:00 -1°C° 0 mm 2 mps 762 mmHg 61%
05:00 -1°C° 0 mm 2 mps 762 mmHg 60%
06:00 -1°C° 0 mm 2 mps 763 mmHg 59%
07:00 +1°C° 0 mm 2 mps 763 mmHg 57%
08:00 +3°C° 0 mm 1 mps 763 mmHg 55%
09:00 +5°C° 0 mm 1 mps 763 mmHg 53%
10:00 +6°C° 0 mm 1 mps 763 mmHg 54%
11:00 +5°C° 0 mm 2 mps 762 mmHg 55%
12:00 +6°C° 0 mm 2 mps 762 mmHg 56%
13:00 +6°C° 0 mm 2 mps 762 mmHg 57%
14:00 +6°C° 0 mm 2 mps 761 mmHg 57%
15:00 +7°C° 0 mm 2 mps 761 mmHg 58%
16:00 +5°C° 0 mm 2 mps 761 mmHg 61%
17:00 +4°C° 0 mm 2 mps 761 mmHg 64%
18:00 +3°C° 0 mm 2 mps 761 mmHg 67%
19:00 +3°C° 0 mm 2 mps 761 mmHg 64%
20:00 +2°C° 0 mm 2 mps 761 mmHg 61%
21:00 +2°C° 0 mm 2 mps 761 mmHg 58%
22:00 +2°C° 0 mm 2 mps 761 mmHg 56%
23:00 +2°C° 0 mm 2 mps 761 mmHg 55%
Show more

We Need Your Consent

Meteoprog and our Service Providers may store and access personal data such as cookies, device identifiers or other similar technologies on your device and process such data to personalise content and ads, as well as provide social media features and to analyse the traffic.

  • Store and/or access information on your device

    Cookies, device identifiers or other information can be stored or accessed on your device for the purposes indicated above.

  • Personalised ads and content, ad and content measurement, audience insights, and products development

    Ads and content can be personalised based on a profile. More data can be added to better personalise ads and content. Ad and content performance can be measured. Insights about the audience who saw the ads and content can be derived. Such data can be used to develop or improve user’s experience, systems and software.

By clicking ‘I Agree’ you will allow the use of indicated cookies, device identifiers, web beacons or other similar technologies. Your settings can be changed in the browser on your device.

For certain purposes, legitimate interests may be relied on, rather than consent. You can read more about this in our Privacy and Cookie Policy.